Location: Caltech
(34.1382°N, 118.1253°W)
Time: 16:52:36
(UTC-07:00)

Oscar 11 - Visible Passes

Search period start: 28 April 2016 00:00
Search period end: 08 May 2016 00:00
Orbit: 614 x 628 km, 97.8° (Epoch: 28 April)

Date Brightness Start Highest point End Pass type
(mag) Time Alt. Az. Time Alt. Az. Time Alt. Az.
28 Apr 7.1 21:21:32 54° ESE 21:22:10 61° ENE 21:26:26 10° N visible
29 Apr 7.0 21:39:08 69° S 21:39:36 81° WSW 21:43:57 10° NNW visible
30 Apr 9.1 20:19:42 10° E 20:21:26 12° ENE 20:23:10 10° NE visible
30 Apr 7.7 21:56:43 47° WSW 21:57:06 48° W 22:01:17 10° NNW visible
01 May 8.6 20:37:09 16° E 20:38:43 19° ENE 20:41:47 10° NNE visible
01 May 8.6 22:14:19 29° WSW 22:14:37 30° W 22:18:25 10° NW visible
02 May 8.0 20:54:44 25° ESE 20:56:04 30° ENE 20:59:49 10° NNE visible
02 May 9.3 22:31:54 19° W 22:32:11 19° W 22:35:14 10° NW visible
03 May 7.4 21:12:20 38° ESE 21:13:28 48° ENE 21:17:36 10° N visible
03 May 9.8 22:49:30 11° W 22:49:48 11° W 22:51:13 10° WNW visible
04 May 6.9 21:29:55 53° SSE 21:30:53 80° ENE 21:35:11 10° N visible
05 May 7.3 21:47:31 51° SSW 21:48:20 62° W 21:52:37 10° NNW visible
06 May 8.9 20:27:57 11° E 20:30:03 15° ENE 20:32:35 10° NNE visible
06 May 8.2 22:05:07 34° WSW 22:05:51 37° W 22:09:51 10° NNW visible
07 May 8.3 20:45:32 18° ESE 20:47:22 24° ENE 20:50:50 10° NNE visible
07 May 8.9 22:22:43 22° WSW 22:23:23 23° W 22:26:50 10° NW visible
